sat.trackr.live / text

‹ back to catalog

FOSSASAT-2E24

NORAD 66780 · 2025-276DU

PAYLOAD ACTIVE UNKNOWN

§ Identity

Operator
Country
SPN
Launch date
2025-11-28
Launch site
AFWTR
Launch vehicle
Mass (kg)
RCS (m²)

External: N2YO · Heavens-Above · Gunter

§ Orbital elements

Epoch: 2026-09-19T23:51:45.225216Z

Period
94.77 min
Inclination
97.4093°
Eccentricity
0.0005333
Mean motion
15.19424006 rev/d
Perigee alt
503.9 km
Apogee alt
511.3 km
Semi-major
6,885.7 km
B*
1.0101e-4
RAAN
334.5528°
Arg perigee
144.3875°
Mean anomaly
215.7716°
Rev number
4,480

§ Raw data

FOSSASAT-2E241 66780U 25276DU  26262.99427344  .00002072  00000+0  10101-3 0  99952 66780  97.4093 334.5528 0005333 144.3875 215.7716 15.19424006 44804

JSON: /api/v1/satellites/66780 · /tle

For live sub-satellite position, see the globe view (requires WebGL).

§ Visibility from observer

Set your observer location to see the next 7 days of passes ≥ 10°. The values pass through the URL so the page stays shareable.

No JS? Fill the form by hand. The geolocation button needs JavaScript.